THY123 LTBU-LTBR

Flight info

Callsign THY123
Flight time N/A
Altitude 21000
Route CRL DCT CEK DCT BRY
Aircraft A320/M-SDE3FGHIRWY/LB1

Departure

Time 2026-04-28 07:54
Airport Tekirdağ Çorlu Airport (LTBU)

Arrival

Time N/A
Airport Bursa Yenişehir Airport (LTBR)
Time Latitude Longitude Altitude Speed Heading
2026-04-28 07:23 41.12789 27.90757 526 ft 0 kts 224°
2026-04-28 07:44 41.12795 27.90764 526 ft 2 kts 224°
2026-04-28 07:44 41.12807 27.90779 527 ft 2 kts 224°
2026-04-28 07:44 41.12818 27.90794 527 ft 2 kts 224°
2026-04-28 07:44 41.12830 27.90810 527 ft 2 kts 224°
2026-04-28 07:45 41.12841 27.90824 528 ft 0 kts 224°
2026-04-28 07:51 41.12834 27.90815 527 ft 5 kts 224°
2026-04-28 07:52 41.12824 27.90783 527 ft 7 kts 253°
2026-04-28 07:52 41.12836 27.90697 524 ft 2 kts 310°
2026-04-28 07:52 41.12842 27.90689 524 ft 2 kts 310°
2026-04-28 07:52 41.12859 27.90662 523 ft 5 kts 311°
2026-04-28 07:53 41.12898 27.90620 520 ft 10 kts 326°
2026-04-28 07:53 41.12966 27.90594 519 ft 10 kts 18°
2026-04-28 07:53 41.12991 27.90621 520 ft 0 kts 47°
2026-04-28 07:53 41.12994 27.90625 521 ft 9 kts 47°
2026-04-28 07:54 41.13234 27.90983 530 ft 92 kts 51°
2026-04-28 07:54 41.13800 27.91858 582 ft 152 kts 51°
2026-04-28 07:54 41.14485 27.93003 1235 ft 162 kts 60°
2026-04-28 07:54 41.14975 27.94330 2168 ft 159 kts 68°
2026-04-28 07:55 41.15017 27.95791 2991 ft 164 kts 106°
2026-04-28 07:55 41.14372 27.97035 3727 ft 169 kts 134°
2026-04-28 07:55 41.13623 27.98271 4266 ft 177 kts 108°
2026-04-28 07:55 41.13260 27.99894 4780 ft 191 kts 99°
2026-04-28 07:56 41.12972 28.01693 5252 ft 209 kts 98°
2026-04-28 07:56 41.12659 28.03667 5827 ft 224 kts 99°
2026-04-28 07:56 41.12311 28.05681 6741 ft 225 kts 101°
2026-04-28 07:56 41.11937 28.07693 7531 ft 229 kts 101°
2026-04-28 07:57 41.11533 28.09758 8328 ft 234 kts 102°
2026-04-28 07:57 41.11106 28.11859 9163 ft 237 kts 103°
2026-04-28 07:57 41.10663 28.13983 9987 ft 241 kts 103°
2026-04-28 07:57 41.10207 28.16143 10724 ft 245 kts 103°
2026-04-28 07:58 41.09743 28.18328 11505 ft 248 kts 103°
2026-04-28 07:58 41.09271 28.20545 12282 ft 251 kts 103°
2026-04-28 07:58 41.08793 28.22785 13064 ft 254 kts 103°
2026-04-28 07:58 41.08310 28.25053 13874 ft 257 kts 103°
2026-04-28 07:59 41.07987 28.26568 14347 ft 259 kts 104°